| time (UTC) | temp F | wind direction | speed MPH | gust MPH | rain 1hr in | rain 24hr in | rain mn in | humidity % | barometer mb |
| 20260502185544 | 74 | 130 | 3.0 | 7.0 | 0.00 | 0.00 | 0.00 | 47 | 1018.9 |
| 20260502185042 | 74 | 57 | 5.0 | 9.0 | 0.00 | 0.00 | 0.00 | 46 | 1019.2 |
| 20260502184538 | 74 | 33 | 7.0 | 18.0 | 0.00 | 0.00 | 0.00 | 46 | 1019.1 |
| 20260502184034 | 73 | 0 | 3.0 | 8.0 | 0.00 | 0.00 | 0.00 | 48 | 1019.2 |
| 20260502183530 | 73 | 2 | 4.0 | 9.0 | 0.00 | 0.00 | 0.00 | 47 | 1019.1 |
| 20260502183026 | 73 | 79 | 3.0 | 6.0 | 0.00 | 0.00 | 0.00 | 48 | 1019.2 |
| 20260502182521 | 73 | 336 | 5.0 | 7.0 | 0.00 | 0.00 | 0.00 | 52 | 1019.4 |
| 20260502182018 | 73 | 356 | 9.0 | 14.0 | 0.00 | 0.00 | 0.00 | 48 | 1019.6 |
| 20260502181516 | 73 | 50 | 7.0 | 7.0 | 0.00 | 0.00 | 0.00 | 47 | 1019.4 |
| 20260502181015 | 72 | 37 | 3.0 | 6.0 | 0.00 | 0.00 | 0.00 | 52 | 1019.5 |
| 20260502180511 | 73 | 161 | 2.0 | 13.0 | 0.00 | 0.00 | 0.00 | 51 | 1019.3 |
| 20260502170430 | 70 | 4 | 5.0 | 7.0 | 0.00 | 0.00 | 0.00 | 58 | 1019.8 |
| 20260502163913 | 69 | 8 | 3.0 | 6.0 | 0.00 | 0.00 | 0.00 | 63 | 1019.9 |
| 20260502163410 | 69 | 53 | 7.0 | 9.0 | 0.00 | 0.00 | 0.00 | 65 | 1019.9 |
| 20260502162908 | 69 | 3 | 6.0 | 10.0 | 0.00 | 0.00 | 0.00 | 66 | 1019.9 |
| 20260502162404 | 68 | 20 | 3.0 | 10.0 | 0.00 | 0.00 | 0.00 | 67 | 1020.1 |
| 20260502161901 | 68 | 31 | 10.0 | 14.0 | 0.00 | 0.00 | 0.00 | 65 | 1019.9 |
| 20260502161357 | 68 | 59 | 2.0 | 7.0 | 0.00 | 0.00 | 0.00 | 69 | 1020.0 |
| 20260502160855 | 68 | 49 | 3.0 | 10.0 | 0.00 | 0.00 | 0.00 | 66 | 1020.0 |
| 20260502160353 | 67 | 32 | 2.0 | 14.0 | 0.00 | 0.00 | 0.00 | 69 | 1020.1 |
| 20260502152328 | 66 | 18 | 3.0 | 6.0 | 0.00 | 0.00 | 0.00 | 79 | 1020.0 |
| 20260502151826 | 66 | 8 | 1.0 | 6.0 | 0.00 | 0.00 | 0.00 | 78 | 1019.9 |
| 20260502151322 | 65 | 351 | 3.0 | 6.0 | 0.00 | 0.00 | 0.00 | 78 | 1019.7 |
| 20260502150820 | 65 | 305 | 2.0 | 6.0 | 0.00 | 0.00 | 0.00 | 80 | 1019.6 |
| 20260502150316 | 64 | 20 | 6.0 | 8.0 | 0.00 | 0.00 | 0.00 | 81 | 1019.9 |
| 20260502130705 | 55 | 49 | 1.0 | 3.0 | 0.00 | 0.00 | 0.00 | 99 | 1018.7 |
| 20260502130203 | 55 | 325 | 6.0 | 8.0 | 0.00 | 0.00 | 0.00 | 99 | 1018.6 |
| 20260502123648 | 53 | 7 | 3.0 | 6.0 | 0.00 | 0.00 | 0.00 | 99 | 1018.2 |
| 20260502123145 | 53 | 49 | 0.0 | 1.0 | 0.00 | 0.00 | 0.00 | 99 | 1018.0 |
| 20260502122641 | 53 | 63 | 0.0 | 2.0 | 0.00 | 0.00 | 0.00 | 99 | 1018.1 |
| 20260502122138 | 53 | 30 | 0.0 | 0.0 | 0.00 | 0.00 | 0.00 | 99 | 1018.1 |
| 20260502121636 | 52 | 66 | 0.0 | 1.0 | 0.00 | 0.00 | 0.00 | 99 | 1018.1 |
| 20260502121133 | 52 | 28 | 0.0 | 0.0 | 0.00 | 0.00 | 0.00 | 99 | 1017.9 |
| 20260502120630 | 52 | 35 | 0.0 | 2.0 | 0.00 | 0.00 | 0.00 | 99 | 1017.7 |
| 20260502120127 | 52 | 43 | 0.0 | 1.0 | 0.00 | 0.00 | 0.00 | 99 | 1017.8 |
| 20260502115624 | 52 | 31 | 1.0 | 2.0 | 0.00 | 0.00 | 0.00 | 99 | 1017.5 |
| 20260502115120 | 52 | 54 | 0.0 | 1.0 | 0.00 | 0.00 | 0.00 | 99 | 1017.6 |
| 20260502114616 | 51 | 68 | 0.0 | 2.0 | 0.00 | 0.00 | 0.00 | 99 | 1017.5 |
| 20260502114114 | 52 | 29 | 0.0 | 2.0 | 0.00 | 0.00 | 0.00 | 99 | 1017.5 |
| 20260502113611 | 51 | 49 | 0.0 | 1.0 | 0.00 | 0.00 | 0.00 | 99 | 1017.3 |
| 20260502113110 | 52 | 12 | 2.0 | 2.0 | 0.00 | 0.00 | 0.00 | 99 | 1017.3 |
| 20260502112607 | 51 | 36 | 1.0 | 2.0 | 0.00 | 0.00 | 0.00 | 99 | 1017.6 |
| 20260502112104 | 51 | 66 | 0.0 | 1.0 | 0.00 | 0.00 | 0.00 | 99 | 1017.3 |
| 20260502111602 | 52 | 54 | 0.0 | 2.0 | 0.00 | 0.00 | 0.00 | 99 | 1017.2 |
| 20260502111059 | 51 | 48 | 1.0 | 2.0 | 0.00 | 0.00 | 0.00 | 99 | 1017.2 |
| 20260502110556 | 51 | 352 | 2.0 | 5.0 | 0.00 | 0.00 | 0.00 | 99 | 1016.9 |
| 20260502110054 | 51 | 12 | 4.0 | 5.0 | 0.00 | 0.00 | 0.00 | 99 | 1016.9 |
| 20260502105551 | 51 | 42 | 1.0 | 6.0 | 0.00 | 0.00 | 0.00 | 99 | 1016.8 |
| 20260502105048 | 51 | 327 | 2.0 | 5.0 | 0.00 | 0.00 | 0.00 | 99 | 1016.8 |
| 20260502104545 | 51 | 20 | 1.0 | 2.0 | 0.00 | 0.00 | 0.00 | 99 | 1016.7 |
| 20260502104043 | 51 | 46 | 1.0 | 3.0 | 0.00 | 0.00 | 0.00 | 99 | 1016.7 |
| 20260502103540 | 51 | 358 | 2.0 | 6.0 | 0.00 | 0.00 | 0.00 | 99 | 1016.8 |
| 20260502103038 | 51 | 10 | 1.0 | 2.0 | 0.00 | 0.00 | 0.00 | 99 | 1016.8 |
| 20260502102534 | 51 | 358 | 2.0 | 2.0 | 0.00 | 0.00 | 0.00 | 99 | 1016.7 |
| 20260502102032 | 51 | 69 | 0.0 | 1.0 | 0.00 | 0.00 | 0.00 | 99 | 1016.6 |
| 20260502101529 | 51 | 45 | 1.0 | 2.0 | 0.00 | 0.00 | 0.00 | 99 | 1016.6 |
| 20260502101028 | 51 | 11 | 0.0 | 2.0 | 0.00 | 0.00 | 0.00 | 99 | 1016.4 |
| 20260502100526 | 51 | 19 | 1.0 | 1.0 | 0.00 | 0.00 | 0.00 | 99 | 1016.1 |
| 20260502091500 | 51 | 3 | 2.0 | 5.0 | 0.00 | 0.00 | 0.00 | 99 | 1015.8 |
| 20260502090958 | 51 | 42 | 0.0 | 1.0 | 0.00 | 0.00 | 0.00 | 99 | 1015.6 |
| 20260502090454 | 51 | 81 | 0.0 | 2.0 | 0.00 | 0.00 | 0.00 | 99 | 1015.7 |
| 20260502071349 | 52 | 51 | 1.0 | 5.0 | 0.00 | 0.00 | 0.00 | 99 | 1015.3 |
| 20260502070847 | 52 | 339 | 3.0 | 6.0 | 0.00 | 0.00 | 0.00 | 99 | 1015.4 |
| 20260502070344 | 52 | 29 | 3.0 | 5.0 | 0.00 | 0.00 | 0.00 | 99 | 1015.3 |
| 20260502065843 | 52 | 65 | 4.0 | 7.0 | 0.00 | 0.00 | 0.00 | 99 | 1015.4 |
| 20260502065341 | 52 | 119 | 3.0 | 3.0 | 0.00 | 0.00 | 0.00 | 99 | 1015.3 |
| 20260502064839 | 52 | 84 | 5.0 | 6.0 | 0.00 | 0.00 | 0.00 | 99 | 1015.3 |
| 20260502064337 | 52 | 87 | 1.0 | 8.0 | 0.00 | 0.00 | 0.00 | 99 | 1015.6 |
| 20260502063833 | 52 | 32 | 5.0 | 7.0 | 0.00 | 0.00 | 0.00 | 99 | 1015.5 |
| 20260502063331 | 52 | 34 | 2.0 | 8.0 | 0.00 | 0.00 | 0.00 | 99 | 1015.7 |
| 20260502062828 | 52 | 104 | 3.0 | 11.0 | 0.00 | 0.00 | 0.00 | 99 | 1015.9 |
| 20260502062326 | 53 | 116 | 1.0 | 2.0 | 0.00 | 0.00 | 0.00 | 99 | 1015.9 |
| 20260502061825 | 53 | 29 | 2.0 | 3.0 | 0.00 | 0.00 | 0.00 | 99 | 1015.7 |
| 20260502061322 | 53 | 54 | 3.0 | 8.0 | 0.00 | 0.00 | 0.00 | 99 | 1015.8 |
| 20260502060817 | 53 | 81 | 3.0 | 5.0 | 0.00 | 0.00 | 0.00 | 99 | 1015.9 |
| 20260502060312 | 53 | 38 | 0.0 | 3.0 | 0.00 | 0.00 | 0.00 | 99 | 1016.1 |
| 20260502055811 | 53 | 34 | 8.0 | 10.0 | 0.00 | 0.00 | 0.00 | 99 | 1016.0 |
| 20260502055308 | 53 | 11 | 4.0 | 5.0 | 0.00 | 0.00 | 0.00 | 99 | 1016.2 |
| 20260502054808 | 53 | 62 | 2.0 | 5.0 | 0.00 | 0.00 | 0.00 | 99 | 1015.9 |
| 20260502054305 | 53 | 2 | 6.0 | 7.0 | 0.00 | 0.00 | 0.00 | 99 | 1016.1 |
| 20260502053802 | 53 | 97 | 1.0 | 7.0 | 0.00 | 0.00 | 0.00 | 99 | 1016.1 |
| 20260502053259 | 53 | 87 | 1.0 | 6.0 | 0.00 | 0.00 | 0.00 | 99 | 1016.2 |
| 20260502052757 | 53 | 49 | 2.0 | 6.0 | 0.00 | 0.00 | 0.00 | 99 | 1016.2 |
| 20260502052255 | 53 | 18 | 2.0 | 3.0 | 0.00 | 0.00 | 0.00 | 99 | 1016.2 |
| 20260502051752 | 53 | 88 | 3.0 | 7.0 | 0.00 | 0.00 | 0.00 | 99 | 1016.2 |
| 20260502051251 | 53 | 2 | 2.0 | 3.0 | 0.00 | 0.00 | 0.00 | 99 | 1016.1 |
| 20260502050747 | 53 | 76 | 2.0 | 6.0 | 0.00 | 0.00 | 0.00 | 99 | 1016.2 |
| 20260502050243 | 54 | 74 | 1.0 | 8.0 | 0.00 | 0.00 | 0.00 | 99 | 1016.1 |
| 20260502045740 | 54 | 318 | 8.0 | 10.0 | 0.00 | 2.51 | 2.51 | 99 | 1015.8 |
| 20260502045237 | 54 | 19 | 2.0 | 9.0 | 0.00 | 2.51 | 2.51 | 99 | 1015.9 |
| 20260502044734 | 54 | 7 | 2.0 | 9.0 | 0.00 | 2.51 | 2.51 | 99 | 1015.9 |
| 20260502044230 | 54 | 324 | 5.0 | 11.0 | 0.00 | 2.51 | 2.51 | 99 | 1015.5 |
| 20260502043728 | 54 | 355 | 5.0 | 7.0 | 0.07 | 2.51 | 2.51 | 99 | 1015.3 |
| 20260502043225 | 55 | 54 | 3.0 | 6.0 | 0.05 | 2.50 | 2.50 | 99 | 1014.8 |
| 20260502042724 | 55 | 62 | 1.0 | 5.0 | 0.05 | 2.50 | 2.50 | 99 | 1015.2 |
| 20260502042222 | 55 | 355 | 4.0 | 8.0 | 0.07 | 2.49 | 2.49 | 99 | 1014.9 |
| 20260502041719 | 55 | 350 | 2.0 | 8.0 | 0.12 | 2.49 | 2.49 | 99 | 1014.6 |
| 20260502041216 | 55 | 44 | 1.0 | 3.0 | 0.05 | 2.48 | 2.48 | 99 | 1014.5 |
| 20260502040713 | 55 | 40 | 1.0 | 6.0 | 0.07 | 2.47 | 2.47 | 99 | 1014.4 |
| 20260502040210 | 55 | 11 | 2.0 | 6.0 | 0.07 | 2.47 | 2.47 | 99 | 1014.5 |
| 20260502035706 | 55 | 68 | 2.0 | 10.0 | 0.00 | 2.46 | 2.46 | 99 | 1014.8 |
| 20260502035203 | 55 | 26 | 1.0 | 7.0 | 0.05 | 2.46 | 2.46 | 99 | 1015.0 |
| 20260502034701 | 55 | 344 | 5.0 | 8.0 | 0.05 | 2.46 | 2.46 | 99 | 1015.1 |
| 20260502034159 | 55 | 320 | 3.0 | 6.0 | 0.07 | 2.45 | 2.45 | 99 | 1015.3 |
| 20260502033657 | 55 | 37 | 1.0 | 7.0 | 0.12 | 2.45 | 2.45 | 99 | 1015.0 |
| 20260502033154 | 55 | 24 | 1.0 | 7.0 | 0.05 | 2.44 | 2.44 | 99 | 1014.8 |
| 20260502032650 | 55 | 29 | 0.0 | 3.0 | 0.00 | 2.43 | 2.43 | 99 | 1014.7 |
| 20260502032146 | 55 | 23 | 1.0 | 6.0 | 0.00 | 2.43 | 2.43 | 99 | 1014.9 |
| 20260502031645 | 55 | 2 | 3.0 | 7.0 | 0.00 | 2.43 | 2.43 | 99 | 1014.7 |
| 20260502031142 | 55 | 39 | 0.0 | 3.0 | 0.00 | 2.43 | 2.43 | 99 | 1014.6 |
| 20260502030641 | 55 | 23 | 3.0 | 5.0 | 0.00 | 2.43 | 2.43 | 99 | 1014.6 |
| 20260502030139 | 55 | 33 | 2.0 | 5.0 | 0.07 | 2.43 | 2.43 | 99 | 1014.4 |
| 20260502025635 | 55 | 12 | 2.0 | 3.0 | 0.07 | 2.43 | 2.43 | 99 | 1014.3 |
| 20260502025133 | 55 | 1 | 0.0 | 3.0 | 0.00 | 2.42 | 2.42 | 99 | 1014.4 |
| 20260502024631 | 55 | 11 | 2.0 | 7.0 | 0.07 | 2.42 | 2.42 | 99 | 1014.2 |
| 20260502024129 | 55 | 29 | 2.0 | 8.0 | 0.12 | 2.42 | 2.42 | 99 | 1014.2 |
| 20260502023627 | 55 | 39 | 3.0 | 5.0 | 0.05 | 2.41 | 2.41 | 99 | 1014.2 |
| 20260502023123 | 55 | 33 | 0.0 | 2.0 | 0.00 | 2.40 | 2.40 | 99 | 1014.5 |
| 20260502022620 | 55 | 334 | 5.0 | 7.0 | 0.00 | 2.40 | 2.40 | 99 | 1014.3 |
| 20260502022118 | 55 | 6 | 2.0 | 3.0 | 0.00 | 2.40 | 2.40 | 99 | 1013.9 |
| 20260502021615 | 55 | 43 | 1.0 | 6.0 | 0.00 | 2.40 | 2.40 | 99 | 1013.5 |
| 20260502021112 | 55 | 34 | 4.0 | 5.0 | 0.00 | 2.40 | 2.40 | 99 | 1012.9 |
| 20260502020610 | 55 | 57 | 4.0 | 6.0 | 0.00 | 2.40 | 2.40 | 99 | 1012.7 |
| 20260502020106 | 55 | 20 | 2.0 | 6.0 | 0.00 | 2.40 | 2.40 | 99 | 1012.5 |
| 20260502015604 | 55 | 332 | 7.0 | 13.0 | 0.00 | 2.40 | 2.40 | 99 | 1012.5 |
| 20260502015100 | 55 | 49 | 2.0 | 2.0 | 0.00 | 2.40 | 2.40 | 99 | 1012.4 |
| 20260502014557 | 55 | 34 | 1.0 | 6.0 | 0.00 | 2.40 | 2.40 | 99 | 1012.3 |
| 20260502014054 | 56 | 93 | 11.0 | 14.0 | 0.07 | 2.40 | 2.40 | 99 | 1012.2 |
| 20260502013549 | 56 | 95 | 2.0 | 6.0 | 0.00 | 2.39 | 2.39 | 99 | 1011.6 |
| 20260502013046 | 56 | 66 | 3.0 | 8.0 | 0.05 | 2.39 | 2.39 | 99 | 1011.6 |
| 20260502012543 | 56 | 332 | 1.0 | 3.0 | 0.12 | 2.39 | 2.39 | 99 | 1011.4 |
| 20260502012041 | 56 | 12 | 7.0 | 9.0 | 0.12 | 2.38 | 2.38 | 99 | 1011.3 |
| 20260502011538 | 56 | 359 | 4.0 | 7.0 | 0.12 | 2.37 | 2.37 | 99 | 1011.3 |
| 20260502011034 | 56 | 39 | 3.0 | 10.0 | 0.07 | 2.36 | 2.36 | 99 | 1011.4 |
| 20260502010532 | 56 | 71 | 1.0 | 9.0 | 0.05 | 2.35 | 2.35 | 99 | 1011.6 |
| 20260502010027 | 56 | 353 | 2.0 | 8.0 | 0.12 | 2.34 | 2.34 | 99 | 1011.7 |
| 20260502005526 | 57 | 16 | 3.0 | 10.0 | 0.19 | 2.34 | 2.34 | 99 | 1011.5 |
| 20260502005023 | 57 | 22 | 2.0 | 6.0 | 0.26 | 2.32 | 2.32 | 99 | 1011.6 |
| 20260502004519 | 57 | 45 | 4.0 | 11.0 | 0.38 | 2.30 | 2.30 | 99 | 1011.8 |
| 20260502004016 | 57 | 2 | 5.0 | 8.0 | 0.24 | 2.27 | 2.27 | 99 | 1011.8 |
| 20260502003514 | 57 | 343 | 4.0 | 9.0 | 0.05 | 2.24 | 2.24 | 99 | 1012.1 |
| 20260502003010 | 57 | 327 | 3.0 | 9.0 | 0.00 | 2.23 | 2.23 | 99 | 1011.8 |
| 20260502002507 | 57 | 344 | 5.0 | 8.0 | 0.07 | 2.23 | 2.23 | 99 | 1011.5 |
| 20260502002004 | 57 | 34 | 2.0 | 5.0 | 0.00 | 2.22 | 2.22 | 99 | 1011.4 |
| 20260502001502 | 58 | 55 | 0.0 | 9.0 | 0.00 | 2.22 | 2.22 | 99 | 1011.0 |
| 20260502000959 | 58 | 58 | 1.0 | 5.0 | 0.00 | 2.22 | 2.22 | 99 | 1010.8 |
| 20260502000457 | 58 | 5 | 4.0 | 8.0 | 0.00 | 2.22 | 2.22 | 99 | 1010.9 |
| 20260501235953 | 58 | 349 | 5.0 | 7.0 | 0.00 | 2.22 | 2.22 | 99 | 1010.7 |
| 20260501235449 | 58 | 16 | 5.0 | 7.0 | 0.05 | 2.22 | 2.22 | 99 | 1011.2 |
| 20260501234944 | 58 | 14 | 3.0 | 6.0 | 0.05 | 2.22 | 2.22 | 99 | 1011.2 |
| 20260501234441 | 58 | 27 | 3.0 | 15.0 | 0.07 | 2.21 | 2.21 | 99 | 1010.9 |
| 20260501233940 | 59 | 25 | 2.0 | 5.0 | 0.12 | 2.21 | 2.21 | 99 | 1010.9 |
| 20260501233437 | 59 | 89 | 1.0 | 3.0 | 0.12 | 2.20 | 2.20 | 99 | 1011.3 |
| 20260501232933 | 59 | 31 | 1.0 | 6.0 | 0.19 | 2.19 | 2.19 | 99 | 1011.3 |
| 20260501232430 | 59 | 56 | 0.0 | 5.0 | 0.14 | 2.17 | 2.17 | 99 | 1011.7 |
| 20260501231927 | 59 | 174 | 0.0 | 2.0 | 0.24 | 2.16 | 2.16 | 99 | 1012.0 |
| 20260501231426 | 59 | 45 | 1.0 | 3.0 | 0.24 | 2.14 | 2.14 | 99 | 1011.9 |
| 20260501230923 | 59 | 358 | 1.0 | 3.0 | 0.12 | 2.12 | 2.12 | 99 | 1012.0 |
| 20260501230422 | 59 | 13 | 2.0 | 3.0 | 0.00 | 2.10 | 2.10 | 99 | 1012.2 |
| 20260501225919 | 59 | 118 | 1.0 | 3.0 | 0.12 | 2.10 | 2.10 | 99 | 1012.2 |
| 20260501225417 | 59 | 44 | 1.0 | 2.0 | 0.17 | 2.09 | 2.09 | 99 | 1012.1 |
| 20260501224912 | 59 | 66 | 0.0 | 3.0 | 0.31 | 2.08 | 2.08 | 99 | 1012.0 |
| 20260501224410 | 59 | 7 | 1.0 | 5.0 | 0.38 | 2.06 | 2.06 | 99 | 1011.7 |
| 20260501223906 | 59 | 5 | 2.0 | 7.0 | 0.28 | 2.02 | 2.02 | 99 | 1011.0 |
| 20260501223403 | 59 | 20 | 2.0 | 5.0 | 0.31 | 1.99 | 1.99 | 99 | 1010.6 |
| 20260501222858 | 59 | 53 | 1.0 | 5.0 | 0.35 | 1.96 | 1.96 | 99 | 1010.9 |
| 20260501222356 | 59 | 68 | 2.0 | 2.0 | 0.38 | 1.93 | 1.93 | 99 | 1011.3 |
| 20260501221852 | 59 | 78 | 1.0 | 1.0 | 0.42 | 1.90 | 1.90 | 99 | 1011.2 |
| 20260501221349 | 59 | 56 | 3.0 | 3.0 | 0.35 | 1.86 | 1.86 | 99 | 1011.4 |
| 20260501220848 | 59 | 55 | 3.0 | 3.0 | 0.35 | 1.83 | 1.83 | 99 | 1011.5 |
| 20260501220345 | 59 | 44 | 1.0 | 2.0 | 0.31 | 1.79 | 1.79 | 99 | 1011.8 |
| 20260501215841 | 59 | 38 | 1.0 | 6.0 | 0.28 | 1.76 | 1.76 | 99 | 1011.9 |
| 20260501215337 | 59 | 332 | 4.0 | 5.0 | 0.35 | 1.74 | 1.74 | 99 | 1011.9 |
| 20260501214833 | 59 | 19 | 1.0 | 3.0 | 0.38 | 1.71 | 1.71 | 99 | 1012.2 |
| 20260501214328 | 59 | 358 | 1.0 | 2.0 | 0.31 | 1.68 | 1.68 | 99 | 1012.2 |
| 20260501213824 | 59 | 332 | 2.0 | 3.0 | 0.24 | 1.65 | 1.65 | 99 | 1012.3 |
| 20260501213321 | 59 | 62 | 0.0 | 1.0 | 0.19 | 1.62 | 1.62 | 99 | 1011.6 |
| 20260501212817 | 59 | 45 | 2.0 | 5.0 | 0.28 | 1.61 | 1.61 | 99 | 1010.8 |
| 20260501212313 | 59 | 24 | 3.0 | 5.0 | 0.24 | 1.58 | 1.58 | 99 | 1010.7 |
| 20260501211811 | 59 | 74 | 2.0 | 5.0 | 0.19 | 1.56 | 1.56 | 99 | 1010.5 |
| 20260501211308 | 59 | 55 | 0.0 | 3.0 | 0.12 | 1.53 | 1.53 | 99 | 1010.7 |
| 20260501210805 | 59 | 357 | 2.0 | 2.0 | 0.17 | 1.52 | 1.52 | 99 | 1010.7 |
| 20260501210302 | 59 | 58 | 2.0 | 5.0 | 0.24 | 1.50 | 1.50 | 99 | 1010.9 |
| 20260501205758 | 59 | 55 | 3.0 | 6.0 | 0.17 | 1.48 | 1.48 | 99 | 1010.4 |
| 20260501205255 | 59 | 63 | 3.0 | 5.0 | 0.12 | 1.46 | 1.46 | 99 | 1010.0 |
| 20260501204752 | 60 | 39 | 4.0 | 5.0 | 0.12 | 1.45 | 1.45 | 99 | 1009.4 |
| 20260501204249 | 59 | 93 | 2.0 | 6.0 | 0.19 | 1.44 | 1.44 | 99 | 1009.6 |
| 20260501203745 | 60 | 98 | 2.0 | 6.0 | 0.19 | 1.43 | 1.43 | 99 | 1009.5 |
| 20260501203242 | 60 | 22 | 3.0 | 11.0 | 0.12 | 1.41 | 1.41 | 99 | 1008.4 |
| 20260501202739 | 60 | 76 | 4.0 | 5.0 | 0.19 | 1.40 | 1.40 | 99 | 1009.3 |
| 20260501202236 | 60 | 90 | 5.0 | 7.0 | 0.24 | 1.38 | 1.38 | 99 | 1009.3 |
| 20260501201733 | 60 | 55 | 2.0 | 6.0 | 0.31 | 1.36 | 1.36 | 99 | 1009.9 |
| 20260501201230 | 60 | 45 | 0.0 | 2.0 | 0.31 | 1.33 | 1.33 | 99 | 1010.7 |
| 20260501200726 | 60 | 41 | 2.0 | 5.0 | 0.90 | 1.31 | 1.31 | 99 | 1010.8 |
| 20260501200224 | 60 | 42 | 1.0 | 6.0 | 0.71 | 1.26 | 1.26 | 99 | 1011.4 |
| 20260501195721 | 60 | 58 | 1.0 | 5.0 | 0.05 | 1.15 | 1.15 | 99 | 1010.9 |
| 20260501195217 | 60 | 254 | 3.0 | 6.0 | 0.00 | 1.14 | 1.14 | 99 | 1011.5 |
| 20260501194713 | 60 | 50 | 3.0 | 7.0 | 0.00 | 1.14 | 1.14 | 99 | 1009.4 |
| 20260501194208 | 60 | 69 | 3.0 | 5.0 | 0.00 | 1.14 | 1.14 | 99 | 1008.7 |
| 20260501193705 | 60 | 103 | 5.0 | 9.0 | 0.07 | 1.14 | 1.14 | 99 | 1008.6 |
| 20260501193204 | 60 | 75 | 1.0 | 3.0 | 0.12 | 1.14 | 1.14 | 99 | 1008.8 |
| 20260501192701 | 60 | 109 | 5.0 | 9.0 | 0.05 | 1.13 | 1.13 | 99 | 1009.4 |
| 20260501192158 | 60 | 70 | 2.0 | 6.0 | 0.00 | 1.12 | 1.12 | 99 | 1009.8 |
| 20260501191655 | 60 | 49 | 4.0 | 7.0 | 0.00 | 1.12 | 1.12 | 99 | 1010.1 |
| 20260501191153 | 60 | 62 | 3.0 | 10.0 | 0.00 | 1.12 | 1.12 | 99 | 1010.3 |
| 20260501190649 | 60 | 59 | 3.0 | 9.0 | 0.00 | 1.12 | 1.12 | 99 | 1010.5 |
| 20260501190144 | 60 | 75 | 4.0 | 13.0 | 0.00 | 1.12 | 1.12 | 99 | 1010.3 |